Mandan, ND

6:07 PM CST on February 20, 2018 (GMT -0600)
Mandan

Weather History for KY19 - March, 2012

Change the Weather History Date:

Tuesday, March 13, 2012

  Actual Average (KBIS) Record (KBIS)
Temperature  
Mean Temperature 52 °F -  
Max Temperature 71 °F 37 °F 72 °F (2016)
Min Temperature 32 °F 20 °F -25 °F (1951)
Degree Days  
Heating Degree Days 14    
Growing Degree Days 2 (Base 50)    
Moisture  
Dew Point 26 °F    
Average Humidity 44    
Maximum Humidity 69    
Minimum Humidity 24    
Precipitation  
Precipitation 0.00 in - - ()
Sea Level Pressure  
Sea Level Pressure 29.68 in    
Wind  
Wind Speed 10 mph (SSE)    
Max Wind Speed 18 mph    
Max Gust Speed 25 mph    
Visibility 10 miles    
Events      
Averages and records for this station are not official NWS values.
T = Trace of Precipitation, MM = Missing Value Source: NWS Daily Summary

Daily Weather History Graph

Daily Weather History Graph

Search for Another Location

Airport or City:

Trip Planner

Search our weather history database for the weather conditions in past years. The results will help you decide how hot, cold, wet, or windy it might be!

Date:

Astronomy

Mar. 13, 2012 Rise Set
Actual Time 7:59 AM CDT 7:47 PM CDT
Civil Twilight 7:29 AM CDT 8:17 PM CDT
Nautical Twilight 6:53 AM CDT 8:52 PM CDT
Astronomical Twilight 6:18 AM CDT 9:28 PM CDT
Moon 1:45 AM CDT (3/13) 10:49 AM CDT (3/13)
Length of Visible Light 12h 48m
Length of Day
11h 47m
Waning Gibbous, 65% of the Moon is Illuminated
Mar 13
Waning Gibbous
Mar 14
Last Quarter
Mar 22
New
Mar 30
First Quarter
Apr 6
Full

Hourly Weather History & Observations

Time (CDT) Temp. Windchill Dew Point Humidity Pressure Visibility Wind Dir Wind Speed Gust Speed Precip Events Conditions
12:15 AM 37.4 °F 30.8 °F 15.8 °F 41% 29.84 in 10.0 mi SSE 9.2 mph - N/A   Clear
12:35 AM 33.8 °F 27.0 °F 17.6 °F 52% 29.85 in 10.0 mi South 8.1 mph - N/A   Clear
12:55 AM 35.6 °F 30.7 °F 17.6 °F 48% 29.85 in 10.0 mi South 5.8 mph - N/A   Clear
1:15 AM 35.6 °F 30.7 °F 17.6 °F 48% 29.85 in 10.0 mi South 5.8 mph - N/A   Clear
1:35 AM 37.4 °F 33.8 °F 17.6 °F 45% 29.86 in 10.0 mi SSE 4.6 mph - N/A   Clear
1:55 AM 37.4 °F 32.8 °F 15.8 °F 41% 29.85 in 10.0 mi SE 5.8 mph - N/A   Clear
2:15 AM 37.4 °F 32.1 °F 15.8 °F 41% 29.85 in 10.0 mi SE 6.9 mph - N/A   Clear
2:35 AM 35.6 °F 29.9 °F 17.6 °F 48% 29.85 in 10.0 mi SE 6.9 mph - N/A   Clear
2:55 AM 33.8 °F 27.7 °F 19.4 °F 56% 29.85 in 10.0 mi SSE 6.9 mph - N/A   Clear
3:15 AM 32.0 °F 25.6 °F 19.4 °F 60% 29.85 in 10.0 mi SSE 6.9 mph - N/A   Clear
3:35 AM 35.6 °F 30.7 °F 19.4 °F 52% 29.85 in 10.0 mi SE 5.8 mph - N/A   Clear
3:55 AM 35.6 °F 30.7 °F 19.4 °F 52% 29.85 in 10.0 mi SE 5.8 mph - N/A   Clear
4:15 AM 32.0 °F 24.8 °F 21.2 °F 64% 29.84 in 10.0 mi SE 8.1 mph - N/A   Clear
4:35 AM 32.0 °F 26.4 °F 21.2 °F 64% 29.84 in 10.0 mi SE 5.8 mph - N/A   Clear
4:55 AM 32.0 °F 26.4 °F 23.0 °F 69% 29.84 in 10.0 mi SE 5.8 mph - N/A   Clear
5:15 AM 32.0 °F 24.2 °F 21.2 °F 64% 29.83 in 10.0 mi SE 9.2 mph - N/A   Clear
5:35 AM 32.0 °F 24.8 °F 19.4 °F 60% 29.82 in 10.0 mi ESE 8.1 mph - N/A   Clear
5:55 AM 32.0 °F 24.8 °F 19.4 °F 60% 29.82 in 10.0 mi ESE 8.1 mph - N/A   Clear
6:15 AM 32.0 °F 24.2 °F 19.4 °F 60% 29.81 in 10.0 mi ESE 9.2 mph - N/A   Clear
6:35 AM 32.0 °F 25.6 °F 19.4 °F 60% 29.81 in 10.0 mi SE 6.9 mph - N/A   Partly Cloudy
7:55 AM 33.8 °F 25.3 °F 21.2 °F 60% 29.78 in 10.0 mi ESE 11.5 mph - N/A   Clear
8:15 AM 35.6 °F 27.1 °F 21.2 °F 56% 29.78 in 10.0 mi East 12.7 mph - N/A   Clear
8:35 AM 35.6 °F 27.5 °F 21.2 °F 56% 29.77 in 10.0 mi East 11.5 mph - N/A   Clear
8:55 AM 35.6 °F 28.0 °F 23.0 °F 60% 29.77 in 10.0 mi East 10.4 mph - N/A   Clear
9:15 AM 39.2 °F 32.0 °F 23.0 °F 52% 29.76 in 10.0 mi ESE 11.5 mph - N/A   Clear
9:35 AM 39.2 °F 32.0 °F 24.8 °F 56% 29.75 in 10.0 mi SE 11.5 mph - N/A   Clear
9:55 AM 41.0 °F 34.3 °F 26.6 °F 57% 29.74 in 10.0 mi ESE 11.5 mph - N/A   Clear
10:15 AM 44.6 °F 37.8 °F 28.4 °F 53% 29.73 in 10.0 mi SE 15.0 mph - N/A   Clear
10:35 AM 46.4 °F 41.5 °F 28.4 °F 50% 29.73 in 10.0 mi SE 10.4 mph - N/A   Clear
10:55 AM 48.2 °F - 32.0 °F 54% 29.72 in 10.0 mi SSE 17.3 mph 21.9 mph N/A   Clear
11:15 AM 50.0 °F - 32.0 °F 50% 29.70 in 10.0 mi SSE 18.4 mph - N/A   Clear
11:35 AM 50.0 °F - 32.0 °F 50% 29.70 in 10.0 mi South 17.3 mph - N/A   Clear
11:55 AM 53.6 °F - 32.0 °F 44% 29.69 in 10.0 mi SSE 17.3 mph - N/A   Clear
12:15 PM 53.6 °F - 33.8 °F 47% 29.68 in 10.0 mi South 15.0 mph - N/A   Clear
12:35 PM 55.4 °F - 33.8 °F 44% 29.67 in 10.0 mi South 12.7 mph 16.1 mph N/A   Clear
12:55 PM 57.2 °F - 33.8 °F 41% 29.66 in 10.0 mi South 13.8 mph - N/A   Clear
1:15 PM 59.0 °F - 35.6 °F 42% 29.65 in 10.0 mi SSE 15.0 mph - N/A   Clear
1:35 PM 59.0 °F - 35.6 °F 42% 29.64 in 10.0 mi South 12.7 mph 20.7 mph N/A   Clear
1:55 PM 62.6 °F - 33.8 °F 34% 29.62 in 10.0 mi SSE 13.8 mph - N/A   Clear
2:15 PM 62.6 °F - 33.8 °F 34% 29.61 in 10.0 mi SE 13.8 mph 18.4 mph N/A   Clear
2:35 PM 64.4 °F - 33.8 °F 32% 29.59 in 10.0 mi SSE 13.8 mph - N/A   Clear
3:15 PM 66.2 °F - 32.0 °F 28% 29.56 in 10.0 mi South 16.1 mph 24.2 mph N/A   Clear
3:35 PM 66.2 °F - 33.8 °F 30% 29.55 in 10.0 mi South 12.7 mph 21.9 mph N/A   Clear
3:55 PM 68.0 °F - 33.8 °F 28% 29.54 in 10.0 mi SSE 16.1 mph 21.9 mph N/A   Clear
4:15 PM 68.0 °F - 33.8 °F 28% 29.53 in 10.0 mi South 13.8 mph 24.2 mph N/A   Clear
4:35 PM 68.0 °F - 33.8 °F 28% 29.52 in 10.0 mi SSE 16.1 mph 25.3 mph N/A   Clear
4:55 PM 69.8 °F - 33.8 °F 27% 29.52 in 10.0 mi SSE 17.3 mph 23.0 mph N/A   Clear
5:35 PM 71.6 °F - 33.8 °F 25% 29.49 in 10.0 mi SE 17.3 mph 24.2 mph N/A   Clear
5:55 PM 69.8 °F - 33.8 °F 27% 29.49 in 10.0 mi SE 12.7 mph 19.6 mph N/A   Clear
6:15 PM 68.0 °F - 33.8 °F 28% 29.48 in 10.0 mi ESE 11.5 mph - N/A   Clear
6:35 PM 68.0 °F - 33.8 °F 28% 29.47 in 10.0 mi ESE 9.2 mph - N/A   Clear
6:55 PM 66.2 °F - 33.8 °F 30% 29.46 in 10.0 mi ESE 9.2 mph - N/A   Clear
7:15 PM 64.4 °F - 32.0 °F 30% 29.46 in 10.0 mi SE 8.1 mph - N/A   Clear
7:35 PM 62.6 °F - 32.0 °F 32% 29.46 in 10.0 mi South 9.2 mph - N/A   Clear
7:55 PM 64.4 °F - 26.6 °F 24% 29.46 in 10.0 mi SSW 12.7 mph 16.1 mph N/A   Clear
8:15 PM 59.0 °F - 26.6 °F 29% 29.47 in 10.0 mi South 11.5 mph - N/A   Clear
8:35 PM 59.0 °F - 26.6 °F 29% 29.47 in 10.0 mi South 11.5 mph - N/A   Clear
8:55 PM 59.0 °F - 24.8 °F 27% 29.47 in 10.0 mi SSW 6.9 mph - N/A   Clear
9:15 PM 59.0 °F - 24.8 °F 27% 29.47 in 10.0 mi SW 9.2 mph - N/A   Clear
9:35 PM 57.2 °F - 24.8 °F 29% 29.47 in 10.0 mi South 12.7 mph - N/A   Clear
9:55 PM 57.2 °F - 24.8 °F 29% 29.48 in 10.0 mi SSW 12.7 mph - N/A   Clear
10:15 PM 55.4 °F - 24.8 °F 31% 29.48 in 10.0 mi SSW 9.2 mph - N/A   Clear
10:35 PM 53.6 °F - 24.8 °F 33% 29.48 in 10.0 mi SW 10.4 mph - N/A   Clear
10:55 PM 55.4 °F - 24.8 °F 31% 29.48 in 10.0 mi SW 10.4 mph - N/A   Clear
11:15 PM 53.6 °F - 24.8 °F 33% 29.48 in 10.0 mi SW 12.7 mph - N/A   Clear
11:35 PM 53.6 °F - 24.8 °F 33% 29.48 in 10.0 mi SW 10.4 mph - N/A   Partly Cloudy
11:55 PM 51.8 °F - 24.8 °F 35% 29.48 in 10.0 mi SW 10.4 mph - N/A   Clear